SL-24 R/B, 40303

Orbit data source: Space-Track

SL-24 R/B, 40303 is space debris in SSO originally from a launch on Thu, 06 Nov 2014 UTC launched from the Orenburg, Russia (OREN). Debris objects in space refer to the collection of defunct objects orbiting the Earth. Examples of debris include non-operational satellites, rocket bodies, and fragments generated from explosions, collisions, or faulty payload assembly.

Loading next visibility...
Identifier
40303, 2014-070F
Orbit
SSO
Country
Flag of CISCIS
Related business
Manufacturer
Yuzhnoe
Mission
Spacecraft
Bus & Motor
15A18-BR, Unknown motor
Mass
~1,000 kg wet, ~1,000 kg dry
Launch date (UTC)
2014-11-06 (11 years ago)
Launch vehicle
Unknown
Launch site
Orenburg, Russia (OREN)
Object type
Payload
Rocket body
Debris
Shape & HBR
Cyl, 1.5 m
Radar Cross Section
10.603 m², Large (>1 m²)

Expand to show TLE details & history
Last TLE update: 13 hours ago

TLE from 13 hours ago
0 SL-24 R/B
1 40303U 14070F   26123.72936270  .00000351  00000-0  91228-4 0  9997
2 40303  97.1705  33.9946 0946408 298.8051  52.1233 13.15286204550782
Epoch: 2026-05-03T17:30Z
TLE epoch observation values (Epoch: 2026-05-03T17:30:16.937Z)
Latitude
0.00002°
Longitude
-90.20471°
Altitude
811.176 km
Speed
7.639 km/s
True Right ascension
02h 15m 58s
True Declination
0° 00' 00"
Sunlit
Object was in daylight at epoch
Visualization orbit readout
Latitude
Unknown
Longitude
Unknown
Altitude
Unknown
Speed
Unknown
Apparent Right ascension
Unknown
Apparent Declination
Unknown
Sunlit
N/A
Visualization observer readout
Local Sidereal Time
13:58:43
Azimuth
Unknown
Elevation
Unknown
Doppler factor
Unknown
Orbital elements
Apogee altitude
1,917.176 km
Perigee altitude
482.779 km
Semi-major axis
7,578.114 km
Eccentricity
0.09464
Inclination
97.1705°
RAAN
33.9946°
Arg. of periapsis
298.8051°
True anomaly
61.31193°
Mean anomaly
52.1233°
Eccentric anomaly
56.65304°
Mean motion
3.29004 °/min
Orbital period
109.42 mins
BSTAR
0.000091228
Loading maneuver chart data...
Computing Atmospheric mass density...
Loading historical data...
Loading historical data...
Loading historical data...
Loading historical data...
Loading historical data...
Loading historical data...
Loading historical data...

Documentation

Showing up to 5 results
|